Location: Unspecified
(35.6961°N, 0.0000°E)
Time: 04:21:45
(UTC+00:00)

Vanguard 3 - Pass Details

Date: 28 May 2019
Orbit: 508 x 3263 km, 33.3° (Epoch: 24 June)

Event Time Altitude Azimuth Distance (km) Brightness Sun altitude
Rises 23:05:14 0° 276° (W) 3,777 10.8 -31.5°
Reaches altitude 10° 23:07:25 10° 273° (W) 3,077 10.2 -31.6°
Maximum altitude 23:15:13 65° 193° (SSW) 1,846 8.5 -31.9°
Enters shadow 23:16:15 62° 167° (SSE) 1,956 8.6 -31.9°
Drops below altitude 10° 23:29:21 10° 117° (ESE) 5,323 - -32.4°
Exits shadow 23:30:40 - 116° (ESE) 5,687 11.1 -32.4°
Sets 23:34:24 0° 115° (ESE) 6,684 11.6 -32.5°
